IRIDIUM 33 DEB, 39781

Orbit data source: Space-Track

IRIDIUM 33 DEB, 39781 is space debris in LEO originally from a launch on Sun, 14 Sep 1997 UTC launched from the Tyuratam Missile And Space Complex (TTMTR). The debris from Iridium 33, an American commercial communications satellite, has been tracked extensively since its accidental collision with the defunct Russian satellite Cosmos 2251 in 2009. This event, occurring at high speed in low Earth orbit (LEO), generated thousands of pieces of space debris, significantly increasing the risk of further collisions. The Iridium 33 debris cloud has impacted space traffic management and orbital debris mitigation strategies, making it a subject of ongoing study in space situational awareness.

Loading next visibility...
Identifier
39781, 1997-051AAN
Orbit
LEO
Country
Flag of USUS
Related business
Manufacturer
Unknown
Mission
Spacecraft
Bus & Motor
Unknown
Mass
Unknown
Launch date (UTC)
1997-09-14 (28 years ago)
Launch vehicle
Unknown
Launch site
Tyuratam Missile And Space Complex (TTMTR)
Object type
Payload
Rocket body
Debris
Shape & HBR
Unknown
Radar Cross Section
Small (<0.1 m²)

Expand to show TLE details & history
Last TLE update: 4 days ago

TLE from 4 days ago
0 IRIDIUM 33 DEB
1 39781U 97051AAN 25239.41989668  .00002871  00000-0  11920-2 0  9995
2 39781  86.3732 302.0484 0179887 249.8539 124.1487 14.17848690 65859
Epoch: 2025-08-27T10:04Z
TLE epoch observation values (Epoch: 2025-08-27T10:04:39.073Z)
Latitude
15.6315°
Longitude
175.99895°
Altitude
909.385 km
Speed
7.36 km/s
True Right ascension
20h 12m 14s
True Declination
15° 32' 40"
Sunlit
Object was in full shadow at epoch
Visualization orbit readout
Latitude
Unknown
Longitude
Unknown
Altitude
Unknown
Speed
Unknown
Apparent Right ascension
Unknown
Apparent Declination
Unknown
Sunlit
N/A
Visualization observer readout
Local Sidereal Time
18:08:29
Azimuth
Unknown
Elevation
Unknown
Doppler factor
Unknown
Orbital elements
Apogee altitude
959.282 km
Perigee altitude
699.966 km
Semi-major axis
7,207.761 km
Eccentricity
0.01799
Inclination
86.3732°
RAAN
302.0484°
Arg. of periapsis
249.8539°
True anomaly
125.83312°
Mean anomaly
124.1487°
Eccentric anomaly
124.99305°
Mean motion
3.54685 °/min
Orbital period
101.5 mins
BSTAR
0.001192
Loading maneuver chart data...
Computing Atmospheric mass density...

Documentation

Showing up to 5 results
|